GFSMA_sfc_rhum_162.txt.gz
RH
93 93 92 92 92 91 92 91 94 90 86 78 78 74 77 82 90 94 96 79 83 77 72 73 75 76 72 71 77 76 73 74 78 74 71 75 74 75 72 68 70 72 76
96 95 94 83 94 93 94 93 87 89 89 91 85 82 84 87 84 84 92 95 80 78 77 74 74 73 75 74 74 74 75 77 80 74 77 76 73 73 75 72 70 72 73
92 92 88 92 94 92 92 89 90 89 79 84 85 91 79 74 82 84 86 93 88 78 82 77 82 82 78 71 72 73 78 81 78 76 78 76 74 75 74 71 72 72 74
81 89 90 91 91 92 96 96 85 78 83 90 86 91 91 78 77 90 89 86 94 75 85 85 84 83 78 69 69 72 77 80 82 81 79 77 73 74 76 74 70 70 71
83 86 87 87 94 90 94 83 87 75 86 84 74 90 93 92 84 73 76 82 86 86 89 86 84 81 75 70 72 75 78 81 82 83 81 80 77 74 77 78 78 78 76
82 78 82 86 92 86 88 83 86 83 86 70 59 78 90 92 90 84 86 70 84 84 90 90 94 85 79 80 78 78 77 79 83 83 84 84 83 80 79 79 78 75 73
82 86 89 87 83 83 81 78 87 87 81 82 81 78 80 76 85 90 83 92 89 88 90 95 95 91 87 84 83 81 81 78 80 81 84 85 85 85 84 84 82 75 73
81 78 82 86 87 82 84 78 87 89 88 84 74 87 88 75 82 85 86 86 77 87 84 87 88 89 91 95 89 84 86 85 81 80 83 86 87 86 86 85 84 81 76
78 78 82 86 83 92 92 86 88 88 89 84 83 76 86 77 85 91 82 88 85 90 92 91 88 91 93 95 89 86 86 88 82 80 84 85 88 88 85 86 87 87 79
77 77 78 83 81 86 88 91 80 89 94 91 90 82 79 73 74 68 88 88 84 77 92 89 82 89 94 96 86 86 88 90 87 82 82 87 85 86 85 85 86 87 81
79 77 79 83 82 90 89 92 88 93 94 93 90 92 86 85 89 92 76 82 90 83 95 88 85 93 94 96 97 92 89 91 90 87 86 84 83 83 83 85 85 85 82
84 84 81 82 81 92 92 92 90 88 90 91 96 93 93 92 84 83 85 85 83 82 94 95 93 98 98 95 78 86 87 90 92 91 90 88 86 84 84 84 85 84 83
93 88 88 84 88 92 91 91 89 87 87 87 90 94 93 89 89 86 88 91 90 93 96 96 99 98 96 97 95 88 87 91 93 94 93 89 86 86 85 82 84 84 82
94 87 90 88 88 90 88 92 90 91 87 90 86 90 90 92 94 95 86 88 90 97 97 96 98 94 98 97 95 89 95 92 93 94 94 90 92 94 95 85 90 94 90
85 90 92 91 91 89 87 91 96 88 88 90 90 90 90 90 90 83 83 84 85 93 94 97 98 96 99 99 95 97 96 91 92 93 91 90 92 96 95 96 96 96 95
92 95 93 89 89 89 90 92 93 90 90 92 93 90 92 91 88 84 81 89 92 92 92 97 97 96 95 94 96 97 95 91 93 91 91 94 90 95 94 95 94 95 94
94 94 87 82 87 80 85 94 94 91 87 90 89 90 86 88 93 93 91 92 91 95 90 90 96 96 94 97 98 99 96 99 97 93 93 95 96 95 95 95 94 95 96
90 88 85 76 82 80 87 92 92 85 89 88 88 90 89 77 88 92 89 92 93 95 96 92 96 94 96 96 99 99 96 94 97 92 94 94 94 94 94 93 95 96 96
89 85 90 81 80 79 91 93 91 86 90 90 90 90 88 90 90 93 94 94 95 93 95 97 95 96 96 97 99 99 99 98 92 92 92 91 92 93 94 95 95 96 97
82 86 89 87 82 78 89 90 88 87 91 91 90 92 92 93 90 91 94 93 95 96 95 96 97 97 97 98 99 99 99 99 97 74 86 88 88 89 90 90 88 90 94
85 80 78 87 85 83 77 91 92 89 90 91 91 90 90 94 93 90 97 96 95 97 98 98 98 98 98 98 99 98 99 99 98 98 94 88 77 72 74 76 73 74 80
95 93 87 84 91 77 80 86 90 95 92 92 93 92 94 95 94 97 96 100 95 95 96 98 99 98 98 97 98 99 99 99 100 98 96 88 76 84 96 91 76 73 74
94 95 92 82 85 89 88 88 88 87 91 94 94 95 96 93 94 95 94 94 92 92 91 95 97 98 98 97 97 99 98 93 98 98 96 99 99 99 97 86 78 80 77
94 93 92 93 89 86 91 88 87 87 93 90 93 94 96 98 97 95 96 92 91 94 95 89 95 95 94 93 95 96 96 99 97 94 93 98 98 95 97 88 81 77 76
97 96 93 93 95 92 97 93 94 95 92 94 94 94 94 97 100 95 94 92 90 88 83 87 83 79 77 84 95 92 99 99 100 97 95 90 95 95 96 98 98 82 83
99 99 98 97 98 95 100 100 100 97 96 97 97 96 99 95 100 96 94 90 93 87 76 66 71 75 82 86 88 88 94 98 99 99 97 96 99 98 98 98 98 98 97

GFSMA_sfc_rhum_165.txt.gz
RH
96 94 94 92 92 92 93 87 89 92 87 77 81 77 85 86 86 92 96 75 77 77 74 71 75 77 77 70 78 73 72 73 74 74 72 73 76 74 77 74 75 76 78
96 93 93 85 92 93 92 94 85 90 91 84 79 81 81 87 86 89 92 92 79 81 77 75 75 74 71 76 73 73 75 77 76 75 72 73 72 76 75 73 72 72 74
94 92 89 90 91 91 92 90 94 87 85 84 85 89 89 80 84 81 85 92 89 83 78 76 77 79 78 72 72 74 78 79 76 76 78 76 74 75 76 73 73 73 74
86 90 88 91 90 93 95 95 86 80 86 92 86 90 93 88 84 87 91 86 92 81 84 82 82 81 75 71 71 74 78 81 80 80 80 80 75 76 76 73 74 74 73
82 86 89 89 90 92 96 85 85 74 85 85 69 85 95 91 85 75 85 88 88 87 94 84 86 84 77 69 70 74 78 82 81 81 81 79 78 77 78 79 75 74 76
75 85 81 88 90 83 89 88 89 88 91 82 66 80 92 91 90 89 87 75 86 85 93 88 96 90 81 78 78 77 77 79 82 82 83 83 80 78 78 78 80 77 74
78 88 92 92 84 86 87 81 91 88 84 85 82 83 79 82 88 88 94 93 90 90 90 93 95 92 87 82 83 81 80 75 77 81 85 86 85 83 83 84 80 75 72
81 82 88 90 90 84 86 85 90 93 91 90 83 85 88 70 79 86 91 88 89 88 88 87 94 89 94 96 90 83 84 83 80 80 82 86 86 86 85 85 84 78 74
81 84 84 88 87 92 94 91 91 89 91 89 91 87 85 85 89 91 83 87 84 90 94 91 92 92 92 96 89 86 85 88 81 81 83 83 87 86 84 84 84 84 79
81 80 83 86 86 90 89 92 85 92 95 91 93 94 89 88 78 80 91 90 86 81 93 96 89 90 95 97 88 86 87 90 87 82 83 86 84 85 84 84 85 85 83
86 81 84 90 88 89 90 91 91 92 95 93 93 95 90 94 92 92 78 85 92 90 95 90 89 90 94 98 97 91 88 90 90 87 86 85 84 81 84 85 84 85 83
89 86 84 89 87 91 92 94 92 91 93 93 96 95 94 92 88 86 87 88 89 96 96 97 92 98 98 97 81 86 87 90 92 91 90 87 84 84 84 84 84 83 83
94 88 90 90 88 92 94 94 93 93 93 94 92 94 96 94 93 90 90 94 93 94 96 98 98 98 97 97 94 90 89 92 93 94 91 87 84 83 83 82 84 84 80
95 90 90 92 89 90 92 93 95 95 94 95 92 94 95 94 96 95 87 90 92 96 97 92 97 98 97 97 94 90 95 93 93 94 92 91 93 95 95 87 90 94 88
94 94 92 93 90 89 92 93 97 95 92 92 94 94 93 93 97 96 90 95 82 94 94 94 97 94 97 98 96 97 97 92 93 90 91 92 95 95 95 95 95 96 96
93 94 93 95 93 93 93 93 95 95 94 95 96 94 94 93 92 92 95 95 93 92 92 96 96 96 98 98 95 97 96 93 91 91 93 94 94 94 94 94 95 95 94
94 93 89 93 94 90 92 95 95 94 94 93 92 94 92 89 93 96 95 96 97 94 89 89 97 96 97 94 98 98 98 99 97 93 93 94 94 94 94 94 96 96 96
95 93 94 93 93 92 87 92 95 90 94 92 91 93 93 91 91 94 96 92 94 96 96 92 95 96 96 97 98 99 93 92 97 92 93 94 94 94 94 95 95 96 96
95 95 94 89 91 90 90 92 96 96 93 91 90 92 89 92 94 94 95 95 96 96 96 96 96 97 98 99 99 99 98 98 90 91 91 92 93 94 92 94 95 96 97
94 94 91 82 78 75 80 88 94 96 93 91 93 94 92 94 96 93 95 96 96 97 96 96 96 97 98 99 99 99 100 99 96 77 88 90 88 88 88 89 90 93 94
88 85 83 87 86 81 71 88 92 93 93 93 94 94 93 94 96 95 96 97 96 97 98 98 98 99 99 100 99 99 99 99 98 99 97 81 73 76 76 76 72 77 83
96 96 91 81 84 77 82 87 88 94 95 96 95 95 94 95 98 98 97 97 96 96 97 98 98 98 98 98 100 99 99 100 100 99 99 96 73 86 95 93 76 71 75
97 97 96 90 87 84 89 89 89 86 92 95 96 96 95 94 96 96 99 98 96 96 92 96 97 98 98 98 98 99 98 92 97 99 96 100 98 99 98 88 79 78 73
95 97 98 98 95 86 91 92 90 93 95 95 95 95 96 97 98 97 97 96 95 96 95 96 95 97 96 97 97 96 93 98 98 99 93 98 99 97 90 87 80 76 73
97 96 96 96 94 92 96 95 94 96 92 94 94 96 96 96 98 97 95 96 96 94 87 90 90 86 90 92 98 96 100 99 99 98 93 88 96 98 97 96 94 80 81
98 98 98 98 98 97 100 100 100 98 97 96 96 96 98 94 100 97 93 92 96 95 81 76 83 89 90 86 93 90 90 98 99 99 97 92 99 95 96 99 99 98 97

GFSMA_sfc_rhum_168.txt.gz
RH
92 92 91 90 90 88 88 83 85 89 89 82 82 82 72 80 81 84 89 70 71 75 74 72 70 74 77 76 71 74 74 75 74 74 73 74 75 78 79 77 77 77 79
92 92 91 84 90 90 90 89 86 90 88 86 82 82 81 80 79 78 81 86 75 77 77 73 73 76 73 70 74 75 75 77 78 75 77 76 75 75 75 73 72 74 75
92 90 90 88 89 88 87 88 91 86 88 76 82 84 79 77 77 76 77 83 81 76 75 76 76 76 72 73 72 74 78 80 78 77 75 72 70 70 76 75 73 73 74
88 90 89 87 88 90 92 94 84 82 90 92 85 86 82 82 79 81 82 78 86 66 76 80 81 79 75 74 72 75 75 77 78 78 77 75 72 76 75 73 74 74 75
83 87 85 87 88 90 92 85 85 76 85 88 73 77 87 82 79 74 76 78 79 75 80 83 84 83 74 71 71 73 77 81 80 80 80 79 77 76 79 76 73 74 73
81 85 82 88 87 83 84 83 86 83 87 82 62 71 81 83 81 80 77 69 77 78 83 79 88 78 82 79 78 77 76 76 79 80 81 81 82 79 79 80 80 79 78
79 87 91 92 85 85 84 80 85 85 81 83 77 76 71 72 80 80 81 83 81 79 80 84 89 84 75 81 83 79 79 75 77 80 84 84 84 84 84 84 81 77 75
82 89 89 87 85 83 84 84 87 85 84 84 80 80 84 84 70 76 82 78 78 78 77 77 83 82 79 85 80 80 81 83 80 79 82 86 86 85 86 86 86 79 75
81 87 86 88 87 88 88 87 87 86 90 87 88 86 81 84 80 89 77 79 76 82 81 81 83 79 84 87 80 79 84 86 82 81 82 84 87 86 84 84 84 83 80
80 82 85 87 88 87 90 86 83 87 93 88 92 91 87 89 88 92 87 84 81 70 78 86 80 84 86 86 83 82 86 88 86 82 82 87 84 84 84 84 85 85 85
82 81 85 86 89 86 88 88 88 92 95 92 83 84 90 94 90 90 74 80 85 78 88 81 83 83 84 90 85 83 87 89 90 88 87 85 85 79 84 84 85 85 83
82 87 86 88 88 91 89 90 92 89 92 91 94 87 92 92 78 79 78 79 79 86 88 93 86 91 91 89 81 86 86 89 92 91 90 87 84 82 82 83 84 83 82
90 86 92 90 88 90 89 90 91 91 90 92 88 88 89 88 87 80 80 81 86 88 90 88 95 94 90 90 86 86 89 92 92 93 89 86 84 86 83 80 82 83 80
93 87 90 91 90 88 88 93 88 94 92 94 88 91 84 85 95 93 81 80 87 92 94 86 92 94 95 92 91 91 87 93 93 92 90 91 94 94 95 90 92 94 87
92 90 90 90 90 88 88 93 96 93 91 90 91 91 92 85 94 90 97 91 78 90 90 88 94 93 93 93 93 90 90 93 92 90 92 93 95 95 95 95 96 96 95
89 91 91 90 90 91 90 94 95 92 92 92 94 92 93 94 93 83 96 86 90 86 89 89 90 91 90 91 92 89 89 90 89 91 93 94 94 94 94 94 96 96 95
91 91 90 90 92 90 91 94 94 90 90 90 90 91 89 89 96 96 94 91 97 87 82 78 93 92 93 94 96 93 92 92 91 93 92 93 94 93 94 94 95 96 96
91 92 91 91 91 92 90 92 92 86 90 90 88 89 89 85 92 94 93 93 87 94 93 91 92 93 92 90 98 98 88 86 92 91 92 93 93 94 94 95 95 96 96
90 91 93 92 92 90 91 90 91 89 90 90 88 87 86 87 92 89 92 91 92 88 94 93 90 94 96 98 99 98 98 96 84 90 91 92 93 93 93 94 95 96 96
90 90 90 89 87 85 84 85 87 90 90 88 89 89 87 90 92 94 90 93 95 93 94 94 93 94 94 98 98 99 99 98 92 77 86 91 92 87 88 92 92 92 91
90 89 89 89 87 82 70 81 83 85 89 88 89 88 88 92 94 97 93 93 95 96 96 96 95 96 98 100 99 99 100 98 97 97 98 94 76 76 72 81 76 78 83
96 95 91 88 88 77 82 85 82 81 85 91 91 90 89 94 94 99 98 97 99 97 94 96 96 96 95 96 97 98 98 99 100 97 97 98 91 96 95 98 79 76 79
97 97 96 92 90 87 88 88 89 79 84 90 93 93 90 84 94 90 96 99 99 99 95 88 94 93 92 91 94 99 98 90 90 98 97 98 97 99 97 90 79 74 76
97 97 97 96 96 91 94 94 93 90 89 88 90 90 92 90 92 93 92 92 92 88 90 79 86 84 86 86 89 89 90 96 98 98 92 100 99 98 91 80 81 76 74
98 96 93 93 95 94 99 97 97 96 90 91 91 92 91 92 95 98 92 90 89 87 84 92 95 95 96 97 90 85 98 98 99 98 97 91 97 99 94 91 86 76 75
97 97 95 96 97 96 100 100 100 99 98 97 92 94 99 90 98 99 96 96 94 88 84 80 77 81 89 92 96 84 85 96 91 99 84 87 90 88 94 89 90 80 72

GFSMA_sfc_rhum_171.txt.gz
RH
65 62 65 60 62 57 59 59 57 57 60 56 52 52 48 51 52 47 49 73 75 71 70 70 70 73 74 73 72 73 72 71 73 74 74 74 74 76 77 76 75 76 78
69 64 62 55 66 62 62 59 65 62 56 52 52 57 55 52 57 53 45 52 75 72 71 70 73 76 74 71 70 71 71 72 73 75 75 75 71 72 73 74 75 76 77
73 71 62 60 66 67 70 64 65 60 54 52 55 52 52 53 49 54 49 48 48 75 71 74 74 74 70 68 70 71 73 73 73 75 73 70 68 67 72 73 72 72 73
72 70 62 56 65 64 61 59 55 59 54 60 52 49 51 55 51 56 50 51 52 39 68 75 75 75 74 71 70 72 73 72 73 73 72 71 69 69 73 74 72 72 73
66 62 56 59 68 61 62 58 59 61 57 55 47 49 54 49 49 44 52 55 53 47 45 78 79 76 70 66 69 70 73 76 77 77 75 74 74 73 75 72 71 74 74
62 59 54 68 63 56 55 54 65 56 59 56 42 43 46 48 48 46 48 46 53 57 49 58 56 54 76 78 73 73 75 75 76 78 79 78 79 76 76 79 77 76 75
63 69 59 69 65 61 65 64 60 61 52 58 54 47 46 49 52 52 49 48 55 53 55 52 51 51 51 75 80 76 76 72 71 75 77 80 80 80 80 79 79 77 75
63 67 73 66 69 58 68 67 70 56 55 60 58 54 47 48 45 46 52 51 52 50 53 55 55 59 56 51 63 77 77 81 79 78 80 80 81 81 82 82 81 77 75
60 67 69 68 69 68 58 67 67 74 60 59 70 55 50 50 50 52 52 51 55 53 51 55 60 56 61 56 66 69 79 84 80 79 81 83 83 83 82 82 82 80 78
63 64 68 70 73 64 72 64 60 68 81 62 66 59 67 64 50 51 52 53 53 48 53 55 56 59 64 58 73 80 83 86 84 82 81 85 83 82 83 83 83 83 82
66 61 68 71 72 63 71 73 69 78 87 81 85 56 67 60 66 59 60 49 54 52 55 55 52 53 63 63 60 73 84 87 88 87 86 85 85 83 82 84 84 85 83
56 65 65 71 71 68 71 66 71 75 84 76 85 68 66 61 53 54 53 56 53 55 58 60 58 55 57 60 64 85 86 88 90 90 87 85 83 82 81 80 82 84 83
58 62 71 73 65 72 71 71 75 75 77 83 78 57 64 57 59 58 56 52 62 54 55 61 65 58 61 61 60 77 87 90 91 91 88 86 86 88 87 78 79 82 83
56 67 67 69 70 70 69 73 62 63 76 72 75 73 82 57 60 61 58 71 67 58 58 66 61 63 66 62 70 86 73 92 91 90 90 92 93 93 94 92 91 92 83
60 69 69 70 70 70 71 75 63 73 82 74 78 72 88 55 60 59 63 60 84 66 68 55 67 68 64 63 81 68 69 96 90 90 91 93 94 94 94 94 95 95 95
71 73 70 69 69 71 72 76 76 70 79 68 78 80 82 68 62 58 61 62 60 88 86 50 54 66 65 58 83 74 77 85 88 91 92 93 93 93 94 94 95 95 95
72 73 72 69 73 74 74 78 77 72 74 76 77 77 75 79 70 74 75 85 85 63 90 76 61 70 81 89 84 80 80 73 77 91 90 91 92 93 93 94 95 95 95
69 71 71 72 72 74 76 81 78 64 73 70 67 70 69 57 79 81 62 83 70 79 78 78 82 90 74 78 88 89 73 72 79 90 92 92 92 93 94 94 95 95 95
71 64 70 75 74 71 72 73 80 78 72 68 66 70 70 71 74 63 81 85 83 74 80 84 84 86 86 97 97 95 94 93 77 89 91 91 92 92 93 95 94 95 96
74 71 70 71 70 70 69 69 70 74 72 66 70 71 70 74 77 78 82 83 81 85 86 84 88 80 70 97 97 97 98 95 84 66 76 86 88 89 90 93 92 89 90
74 74 73 72 72 67 57 70 70 68 69 66 67 71 69 77 86 83 68 77 81 80 91 87 89 61 66 96 97 96 97 96 93 86 89 80 65 68 70 75 78 78 83
80 80 77 75 73 60 74 84 74 65 68 70 68 65 69 84 86 96 96 96 87 89 81 71 78 66 81 77 86 93 95 97 98 85 81 71 63 73 64 85 74 75 79
78 83 81 78 78 75 87 90 89 63 66 69 72 68 63 52 79 71 92 98 98 99 96 87 78 73 86 87 79 90 93 86 79 79 77 80 74 93 94 92 75 75 78
79 79 80 83 82 76 92 92 91 74 71 72 72 72 74 71 71 74 73 71 73 73 81 69 73 74 71 68 75 75 82 88 88 84 79 94 88 98 95 92 88 76 76
80 78 77 81 84 80 99 97 95 76 72 76 73 74 74 74 84 96 77 74 74 71 83 92 94 97 93 92 77 72 92 91 96 94 92 92 98 99 83 75 76 74 77
88 79 81 79 82 77 96 100 97 68 77 68 73 76 94 85 92 99 89 82 79 77 72 72 82 88 91 85 96 74 71 84 83 96 86 91 94 86 90 78 79 68 50